User: anonymous   Login
Location: Unspecified
(0.0000°N, 0.0000°E)
Time: 09:01:52
(UTC+00:00)
Language:

LEGION 4 - Orbit

View from above orbital plane
View from above orbital plane
View from above satellite
View from above satellite

Ground track
Ground track

The orbit is defined by the following mean orbital elements,

1 60453U          26145.59736601 +.00000000 +00000-0 +21997-3 0 00007
2 60453  45.0009 243.6026 0013134 188.4629 171.6029 15.15846462    09
Epoch (UTC): 25 May 2026 14:20:12
Eccentricity: 0.0013134
inclination: 45.0009°
perigee height: 509 km
apogee height: 527 km
right ascension of ascending node: 243.6026°
argument of perigee: 188.4629°
revolutions per day: 15.15846462
mean anomaly at epoch: 171.6029°

The dashed part of the orbit path shows where the satellite is in the earth's shadow,  

DLR